Waarnemingen

Advertentie
Mijn weer
Huesca, Spanje (8094): temperatuur & dauwpunt: 09.08.2018 01:00:00 - 15.08.2018 01:00:00 (CEST)Huesca, Spanje (8094): windsnelheid: 09.08.2018 01:00:00 - 15.08.2018 01:00:00 (CEST)Huesca, Spanje (8094): windrichting: 09.08.2018 01:00:00 - 15.08.2018 01:00:00 (CEST)Huesca, Spanje (8094): luchtdruk: 09.08.2018 01:00:00 - 15.08.2018 01:00:00 (CEST)Huesca, Spanje (8094): zicht: 09.08.2018 01:00:00 - 15.08.2018 01:00:00 (CEST)Huesca, Spanje (8094): neerslag: 09.08.2018 01:00:00 - 15.08.2018 01:00:00 (CEST)
Datum & Tijd tt [°C] td [°C] ff [km/u] ff [kn] dd ppp [hPa] vv [km] rr [mm]
15.08.2018 01:00:00 16,8 11,7 8 4 W 1018,4 - 0,0
15.08.2018 00:00:00 17,6 11,8 8 4 W 1018,0 - 0,0
14.08.2018 23:00:00 18,9 11,5 8 4 W 1017,2 - -
14.08.2018 22:00:00 20,3 11,8 8 4 W 1016,3 - 0,0
14.08.2018 21:00:00 22,6 11,6 8 4 W 1015,1 - 0,0
14.08.2018 20:00:00 25,6 12,1 8 4 W 1013,8 - -
14.08.2018 19:00:00 27,3 11,7 9 5 W 1013,3 - 0,0
14.08.2018 18:00:00 28,7 11,3 11 6 W 1013,2 - 0,0
14.08.2018 17:00:00 29,2 11,7 15 8 WZW 1013,3 60 -
14.08.2018 16:00:00 28,7 11,3 18 10 WZW 1013,7 - 0,0
14.08.2018 15:00:00 28,3 11,4 16 9 WZW 1014,1 - 0,0
14.08.2018 14:00:00 28,1 9,4 9 5 W 1014,5 60 -
14.08.2018 13:00:00 26,7 10,4 9 5 WZW 1015,1 - 0,0
14.08.2018 12:00:00 25,1 9,8 5 3 NW 1016,1 - 0,0
14.08.2018 11:00:00 23,5 10,5 5 3 W 1016,5 60 -
14.08.2018 10:00:00 20,9 11,8 8 4 WNW 1016,7 - 0,0
14.08.2018 09:00:00 18,1 11,9 8 4 W 1017,0 - 0,0
14.08.2018 08:00:00 16,1 11,9 5 3 W 1017,0 - -
14.08.2018 07:00:00 15,1 11,5 5 3 W 1016,6 - 0,0
14.08.2018 06:00:00 15,4 11,4 5 3 WNW 1016,1 - 0,0
14.08.2018 05:00:00 16,0 11,8 5 3 W 1015,8 - -
14.08.2018 04:00:00 16,6 11,1 5 3 W 1015,7 - 0,0
14.08.2018 03:00:00 17,1 11,1 4 2 W 1015,6 - 0,0
14.08.2018 02:00:00 17,8 10,7 8 4 WNW 1015,4 - -
14.08.2018 01:00:00 18,6 11,2 9 5 W 1015,4 - 0,0
14.08.2018 00:00:00 20,0 11,5 9 5 WNW 1014,7 - 0,0
13.08.2018 23:00:00 21,6 11,3 5 3 WNW 1013,9 - -
13.08.2018 22:00:00 24,1 11,1 5 3 WNW 1012,2 - 0,0
13.08.2018 21:00:00 26,3 12,0 8 4 NW 1010,7 - 0,0
13.08.2018 20:00:00 28,9 12,3 11 6 NW 1009,1 - -
13.08.2018 19:00:00 30,7 12,6 11 6 W 1008,6 - 0,0
13.08.2018 18:00:00 31,2 13,5 11 6 W 1008,8 - 0,0
13.08.2018 17:00:00 31,0 13,7 9 5 W 1009,5 50 -
13.08.2018 16:00:00 30,7 15,2 8 4 ZW 1009,9 - 0,0
13.08.2018 15:00:00 29,3 15,1 9 5 ZZW 1010,7 - 0,0
13.08.2018 14:00:00 28,2 15,1 8 4 ZZW 1011,3 50 -
13.08.2018 13:00:00 26,7 16,3 8 4 WZW 1012,1 - 0,0
13.08.2018 12:00:00 25,1 16,5 8 4 W 1012,9 - 0,0
13.08.2018 11:00:00 24,1 16,6 5 3 Z 1013,0 45 -
13.08.2018 10:00:00 22,1 14,7 5 3 NW 1013,1 - 0,0
13.08.2018 09:00:00 19,6 14,8 8 4 NW 1013,6 - 0,0
13.08.2018 08:00:00 17,8 14,7 4 2 WNW 1013,8 - -
13.08.2018 07:00:00 17,9 13,2 4 2 N 1013,1 - 0,0
13.08.2018 06:00:00 18,4 13,5 8 4 O 1013,1 - 0,0
13.08.2018 05:00:00 18,5 14,2 11 6 ONO 1013,1 - -
13.08.2018 04:00:00 17,4 15,0 9 5 ONO 1013,7 - 0,0
13.08.2018 03:00:00 17,4 15,2 11 6 O 1014,2 - 0,0
13.08.2018 02:00:00 18,4 15,1 5 3 Z 1014,4 - -
13.08.2018 01:00:00 19,2 14,7 8 4 ZO 1013,1 - 0,0
13.08.2018 00:00:00 18,6 15,1 16 9 ONO 1014,2 - 0,2
12.08.2018 23:00:00 19,0 16,0 13 7 ZO 1014,8 - -
12.08.2018 22:00:00 19,6 15,5 16 9 OZO 1014,2 - 0,2
12.08.2018 21:00:00 20,1 14,7 16 9 ONO 1014,4 - 0,0
12.08.2018 20:00:00 20,3 14,4 24 13 OZO 1013,4 - -
12.08.2018 19:00:00 19,9 14,5 16 9 O 1013,2 - 0,2
12.08.2018 18:00:00 22,1 12,6 11 6 WZW 1013,4 - 0,0
12.08.2018 17:00:00 31,2 16,8 5 3 ZW 1009,5 14 -
12.08.2018 16:00:00 33,1 17,3 9 5 Z 1010,8 - 0,0
12.08.2018 15:00:00 32,5 17,5 11 6 OZO 1011,6 - 0,0
12.08.2018 14:00:00 31,7 18,3 16 9 ZO 1012,4 30 -
12.08.2018 13:00:00 30,4 18,5 15 8 OZO 1013,8 - 0,0
12.08.2018 12:00:00 28,4 18,5 15 8 OZO 1014,9 - 0,0
12.08.2018 11:00:00 27,0 18,6 15 8 OZO 1015,4 30 -
12.08.2018 10:00:00 25,1 18,8 15 8 OZO 1015,9 - 0,0
12.08.2018 09:00:00 22,5 18,5 9 5 O 1016,8 - 0,0
12.08.2018 08:00:00 21,1 18,1 9 5 O 1016,9 - -
12.08.2018 07:00:00 20,5 18,3 13 7 O 1016,7 - 0,0
12.08.2018 06:00:00 20,8 18,6 11 6 OZO 1016,6 - 0,0
12.08.2018 05:00:00 21,1 18,7 13 7 O 1016,6 - -
12.08.2018 04:00:00 21,6 19,0 16 9 O 1017,2 - 0,0
12.08.2018 03:00:00 21,5 18,9 16 9 O 1017,3 - 0,0
12.08.2018 02:00:00 21,7 19,1 16 9 O 1017,8 - -
12.08.2018 01:00:00 22,2 19,4 15 8 O 1018,1 - 0,0
12.08.2018 00:00:00 22,8 19,6 13 7 O 1018,3 - 0,0
11.08.2018 23:00:00 24,3 19,6 13 7 O 1017,8 - -
11.08.2018 22:00:00 25,8 19,2 13 7 ZO 1016,8 - 0,0
11.08.2018 21:00:00 27,7 18,4 16 9 ZO 1015,9 - 0,0
11.08.2018 20:00:00 30,0 16,4 13 7 ZZO 1015,5 - -
11.08.2018 19:00:00 31,4 16,6 8 4 Z 1015,5 - 0,0
11.08.2018 18:00:00 32,1 15,6 9 5 ZZW 1015,7 - 0,0
11.08.2018 17:00:00 31,8 16,5 8 4 WZW 1016,1 40 -
11.08.2018 16:00:00 30,5 16,9 8 4 ZO 1017,3 - 0,0
11.08.2018 15:00:00 29,8 16,2 9 5 ZO 1018,4 - 0,0
11.08.2018 14:00:00 27,9 15,9 8 4 ZO 1019,4 40 -
11.08.2018 13:00:00 28,2 16,5 8 4 ZO 1019,9 - 0,0
11.08.2018 12:00:00 26,7 16,6 11 6 ZZO 1020,8 - 0,0
11.08.2018 11:00:00 24,9 16,6 11 6 ZZO 1021,8 35 -
11.08.2018 10:00:00 23,6 16,1 9 5 ZO 1021,9 - 0,0
11.08.2018 09:00:00 20,9 16,5 4 2 WZW 1022,4 - 0,0
11.08.2018 08:00:00 19,3 15,8 4 2 ONO 1022,4 - -
11.08.2018 07:00:00 18,2 15,4 4 2 NO 1022,6 - 0,0
11.08.2018 06:00:00 18,1 15,4 8 4 O 1022,7 - 0,0
11.08.2018 05:00:00 18,6 15,3 13 7 O 1022,6 - -
11.08.2018 04:00:00 19,0 15,5 13 7 O 1022,6 - 0,0
11.08.2018 03:00:00 19,3 15,0 13 7 O 1022,9 - 0,0
11.08.2018 02:00:00 20,0 14,8 9 5 O 1023,3 - -
11.08.2018 01:00:00 20,5 14,4 8 4 O 1023,2 - 0,0
11.08.2018 00:00:00 21,1 14,5 9 5 NO 1022,5 - 0,0
10.08.2018 23:00:00 21,7 14,6 8 4 O 1022,2 - -
10.08.2018 22:00:00 23,0 14,6 5 3 ZO 1021,2 - 0,0
10.08.2018 21:00:00 24,6 14,1 8 4 ZO 1020,0 - 0,0
10.08.2018 20:00:00 26,2 14,3 11 6 ZZO 1019,5 - -
10.08.2018 19:00:00 27,7 14,7 11 6 ZZO 1019,3 - 0,0
10.08.2018 18:00:00 27,5 14,2 8 4 O 1019,5 - 0,0
10.08.2018 17:00:00 28,1 14,0 9 5 ZZO 1019,9 55 -
10.08.2018 16:00:00 27,9 13,0 13 7 ZO 1020,5 - 0,0
10.08.2018 15:00:00 27,9 11,9 13 7 ZO 1020,9 - 0,0
10.08.2018 14:00:00 26,9 9,3 9 5 ZO 1021,6 60 -
10.08.2018 13:00:00 24,6 9,3 8 4 Z 1022,6 - 0,0
10.08.2018 12:00:00 22,1 9,3 5 3 O 1023,2 - 0,0
10.08.2018 11:00:00 21,5 10,3 13 7 OZO 1023,4 50 -
10.08.2018 10:00:00 19,3 11,3 9 5 OZO 1023,8 - 0,0
10.08.2018 09:00:00 17,9 11,7 8 4 ZO 1023,7 - 0,0
10.08.2018 08:00:00 14,3 10,5 8 4 ZO 1023,8 - -
10.08.2018 07:00:00 14,4 10,2 4 2 Z 1023,2 - 0,0
10.08.2018 06:00:00 15,4 10,6 4 2 WNW 1022,7 - 0,0
10.08.2018 05:00:00 15,4 10,4 5 3 WNW 1022,0 - -
10.08.2018 04:00:00 16,1 10,0 5 3 W 1021,5 - 0,0
10.08.2018 03:00:00 16,3 9,7 5 3 W 1021,2 - 0,0
10.08.2018 02:00:00 16,6 10,2 11 6 WZW 1020,8 - -
10.08.2018 01:00:00 17,7 9,1 8 4 W 1019,8 - 0,0
10.08.2018 00:00:00 19,1 9,3 8 4 W 1019,0 - 0,0
09.08.2018 23:00:00 19,7 9,3 9 5 W 1018,3 - -
09.08.2018 22:00:00 20,8 9,1 9 5 W 1017,3 - 0,0
09.08.2018 21:00:00 23,3 10,4 8 4 WNW 1015,7 - 0,0
09.08.2018 20:00:00 26,4 10,1 9 5 W 1014,4 - -
09.08.2018 19:00:00 28,5 10,2 11 6 W 1013,3 - 0,0
09.08.2018 18:00:00 29,0 11,1 11 6 WNW 1012,7 - 0,0
09.08.2018 17:00:00 29,4 11,9 11 6 W 1012,3 45 -
09.08.2018 16:00:00 29,2 12,6 11 6 WNW 1012,2 - 0,0
09.08.2018 15:00:00 29,3 13,9 11 6 W 1012,3 - 0,0
09.08.2018 14:00:00 28,2 14,8 9 5 W 1012,6 35 -
09.08.2018 13:00:00 27,5 16,5 9 5 WNW 1012,9 - 0,0
09.08.2018 12:00:00 25,7 17,6 11 6 WZW 1013,4 - 0,0
09.08.2018 11:00:00 25,0 18,7 9 5 ZZW 1012,7 29 -
09.08.2018 10:00:00 23,7 18,6 13 7 ZO 1012,7 - 0,0
09.08.2018 09:00:00 23,5 18,2 13 7 O 1012,1 - 0,0
09.08.2018 08:00:00 22,2 17,8 15 8 O 1012,1 - -
09.08.2018 07:00:00 22,0 17,6 15 8 O 1011,7 - 0,0
09.08.2018 06:00:00 22,5 17,6 16 9 O 1011,4 - 0,0
09.08.2018 05:00:00 22,3 17,7 16 9 O 1011,1 - -
09.08.2018 04:00:00 21,8 17,0 18 10 O 1010,9 - 0,0
09.08.2018 03:00:00 21,6 16,1 21 11 O 1011,3 - 0,0
09.08.2018 02:00:00 21,5 15,8 18 10 O 1011,6 - -
09.08.2018 01:00:00 21,4 15,9 24 13 O 1011,3 - 0,0

tt = temperatuur
td = dauwpunt
ff = windsnelheid
dd = windrichting
ppp = luchtdruk
vv = zicht
rr = neerslag

Weerstations in de omgeving